SCP
2 2 3 3 3 3 1 0 0 0 0 0 0 0 0 0 0 0 1 1 2 2 2 1 1 1 1 1 1 2 2 3 2 2 1 1 2 2 2 2 2 1 1 1 2 2 2 2 2
2 2 3 3 3 2 1 0 0 0 0 0 0 0 0 0 0 0 1 1 2 3 2 2 1 1 1 1 1 2 2 3 2 2 1 1 1 2 2 2 2 2 1 2 2 2 2 2 2
2 2 3 3 2 1 0 0 0 1 1 1 0 0 0 0 0 0 1 1 2 3 3 2 2 1 1 1 1 2 2 2 2 1 1 1 1 1 2 2 2 2 2 2 2 2 2 2 2
2 3 3 3 1 1 0 1 1 1 1 1 1 0 0 0 0 0 0 1 2 3 3 3 2 2 1 1 1 1 2 2 2 1 1 1 1 1 1 2 2 2 2 2 2 2 2 2 1
3 4 4 2 1 0 0 1 1 1 1 1 1 1 1 0 1 1 0 1 2 2 3 2 3 2 2 1 1 2 2 2 2 1 1 1 1 1 1 1 1 1 1 1 1 1 1 1 1
5 4 3 2 1 0 1 1 1 1 1 0 0 1 1 1 1 1 0 1 1 2 2 2 3 2 2 2 2 2 2 2 2 1 1 1 1 1 1 1 1 1 1 1 1 1 1 1 1
5 4 3 1 0 0 1 1 1 1 1 0 0 1 1 1 1 1 0 1 1 2 2 2 2 2 2 2 3 3 3 2 2 2 1 1 1 1 1 1 1 1 1 1 1 1 1 1 1
4 3 2 1 0 1 1 1 1 1 1 0 0 1 1 1 1 1 1 1 1 1 2 2 2 2 2 3 4 4 4 3 3 2 2 2 2 2 1 1 1 1 1 1 1 1 1 1 1
3 2 1 1 0 1 1 1 1 0 0 1 1 1 1 1 1 1 1 1 1 1 1 2 2 2 2 3 4 5 5 5 4 4 3 3 2 2 2 1 1 1 1 1 1 1 1 1 1
2 1 1 0 0 1 1 0 0 0 0 1 1 1 1 1 1 1 1 1 1 1 1 1 1 2 2 2 3 4 5 5 5 5 4 4 3 3 2 2 1 1 1 1 1 1 1 1 1
1 1 1 0 0 0 0 0 0 0 0 1 1 1 1 1 1 1 1 1 1 1 1 1 1 1 1 2 2 3 4 5 6 6 6 5 5 4 3 2 2 1 1 1 1 1 1 1 1
0 0 0 0 0 0 0 0 0 0 1 1 1 1 1 1 1 1 1 1 1 1 1 1 1 1 2 2 2 2 3 4 7 8 7 6 5 4 3 3 2 1 1 1 1 1 1 1 1
0 0 0 0 0 0 0 0 0 0 1 1 1 1 1 1 1 1 1 1 1 2 2 2 2 2 2 2 1 1 2 4 6 8 7 6 5 4 3 3 2 1 1 1 1 1 1 1 1
0 0 0 0 0 0 0 0 0 1 1 1 1 1 1 1 1 1 1 2 2 2 3 3 3 3 2 2 1 1 1 3 6 7 6 5 4 3 3 2 2 1 1 1 1 1 1 1 1
0 0 0 0 0 0 0 1 1 1 1 1 1 1 1 1 1 1 2 3 4 4 4 4 3 3 2 1 1 1 1 3 5 6 5 4 3 2 2 2 2 2 1 1 1 1 1 1 1
0 0 0 0 0 1 1 1 1 1 1 1 1 1 2 2 2 2 2 4 5 5 5 4 3 3 2 1 1 1 1 2 4 4 4 3 2 2 2 3 3 3 2 1 1 1 1 1 1
0 0 0 0 1 1 1 1 1 1 1 1 1 1 2 4 3 3 4 5 6 5 5 5 4 3 3 2 1 1 1 2 3 3 3 2 2 2 2 3 3 3 2 1 1 1 1 1 1
0 0 0 0 1 1 1 1 1 1 1 1 2 2 3 3 3 3 4 5 5 5 6 6 5 5 3 2 2 2 2 2 3 3 3 2 2 2 2 2 3 3 2 2 1 1 1 1 1
0 0 0 0 0 1 1 1 1 1 1 2 2 2 2 3 3 3 4 5 5 6 7 7 6 6 5 4 3 3 3 3 4 4 4 3 3 3 2 2 2 3 3 2 2 1 1 1 1
0 0 0 0 0 0 1 1 1 1 1 2 3 2 2 3 3 4 5 6 6 7 7 7 7 7 6 6 5 5 4 4 4 4 4 4 3 3 2 2 2 2 3 3 2 2 1 1 1
0 0 0 0 0 1 1 1 1 1 2 2 2 2 2 3 4 5 6 7 8 8 7 7 8 9 8 8 8 7 6 5 5 5 4 4 4 3 3 2 2 2 2 2 2 2 2 1 1
0 0 0 0 0 1 1 1 1 2 2 2 2 2 2 3 4 5 7 8 9 9 7 7 10 11 12 11 11 10 9 8 7 6 5 4 4 3 3 3 3 3 2 2 2 2 2 2 1
0 0 0 0 1 1 1 1 1 2 2 2 3 3 3 3 4 6 7 9 10 9 7 7 10 13 14 14 14 13 12 10 10 8 7 5 4 4 3 3 3 3 2 3 2 2 2 2 1
0 0 0 0 0 1 1 1 1 2 2 2 3 3 4 4 5 6 8 9 10 8 6 7 10 13 14 15 16 15 15 14 14 12 9 6 5 4 4 4 3 3 3 3 2 2 2 2 2
0 0 0 0 0 0 0 1 1 2 3 3 3 4 4 5 5 6 7 9 9 8 7 8 11 13 14 14 15 17 18 19 18 16 12 8 6 5 5 5 4 4 3 3 2 2 2 2 2
0 0 0 0 0 0 1 1 2 3 3 3 3 4 4 5 5 5 6 7 8 8 8 10 13 16 15 14 15 18 21 21 19 17 13 9 7 7 6 5 5 4 3 2 2 2 2 2 2
0 0 0 0 0 0 1 2 3 4 3 3 3 4 4 5 5 4 5 6 8 8 9 12 16 19 18 15 15 17 20 21 19 17 14 10 7 7 6 5 5 4 3 2 2 2 2 2 2
0 0 0 0 0 0 1 2 3 4 3 4 4 4 5 6 5 4 4 5 6 8 10 14 18 21 19 15 13 14 17 19 18 16 12 9 7 6 5 4 4 3 3 2 2 2 2 2 2
0 0 0 0 0 0 1 1 2 3 3 4 4 4 5 5 4 3 3 4 5 7 10 14 18 20 17 13 12 12 13 15 14 12 10 9 7 5 5 4 3 3 3 2 2 2 2 2 2
0 0 0 0 1 1 1 1 1 2 3 4 4 4 4 5 4 3 3 4 5 7 9 14 18 17 14 12 12 12 12 12 11 9 9 8 7 6 5 4 3 3 2 2 2 2 2 2 3
Wind_Speed
9 10 8 5 4 1 6 9 12 11 12 12 12 12 17 15 12 10 9 11 14 13 12 11 11 10 10 9 9 10 10 10 10 10 9 10 9 9 9 9 9 9 10 9 9 9 9 8 7
9 10 7 5 2 4 9 10 12 12 11 11 12 14 16 16 14 12 10 9 13 14 12 12 11 10 10 10 10 10 10 10 10 9 9 9 9 9 9 9 8 9 9 9 9 9 8 7 7
11 11 6 3 2 7 10 10 11 11 10 11 13 15 13 11 12 10 10 11 13 14 13 13 12 11 10 10 10 10 9 9 9 9 9 8 8 8 8 8 8 8 8 8 8 8 7 7 6
7 6 5 1 4 9 10 9 10 11 11 12 12 12 13 11 11 12 12 12 13 14 14 13 12 11 10 10 10 9 9 9 9 9 8 8 8 8 7 7 7 7 7 7 7 7 7 6 5
7 5 3 2 7 10 9 10 10 10 11 13 15 15 13 11 13 13 11 12 12 13 13 13 12 11 10 10 10 9 9 8 8 8 8 8 8 8 7 6 6 6 6 5 5 6 6 5 5
4 4 1 5 9 9 9 8 9 10 12 13 14 15 11 11 11 11 11 10 12 13 13 12 12 11 10 9 9 8 8 7 7 7 7 7 7 7 7 6 5 5 5 5 5 5 5 5 4
6 3 1 6 8 8 9 9 9 10 11 11 12 14 10 11 9 10 10 10 10 12 12 11 11 10 10 9 8 8 8 7 6 6 6 6 6 6 6 6 5 6 5 5 5 5 4 4 4
4 4 3 5 7 8 9 9 10 10 11 10 9 10 10 11 10 10 10 9 9 9 10 9 9 9 8 8 8 8 7 6 6 5 5 5 5 6 6 7 6 6 6 6 6 6 5 6 6
3 2 2 4 6 8 8 9 10 11 10 11 10 13 14 13 11 10 10 9 8 8 8 7 7 8 7 8 8 8 7 5 5 4 6 5 4 4 5 6 7 7 6 7 7 7 7 7 7
2 0 1 4 8 8 7 7 8 10 9 11 13 15 15 13 10 10 9 9 8 7 7 5 6 6 6 5 6 4 4 5 3 2 3 2 2 2 4 7 7 7 7 7 8 8 8 8 5
3 1 2 5 8 8 8 6 7 10 9 9 13 14 13 12 10 9 9 8 8 7 6 6 5 5 4 4 4 3 2 3 3 2 2 1 1 2 3 3 4 4 6 4 5 6 5 5 3
2 1 3 5 6 6 8 7 7 9 10 9 13 14 12 11 9 8 8 8 8 7 6 5 6 4 3 3 3 3 2 2 3 3 1 1 1 1 1 1 2 3 2 2 2 2 2 3 2
2 1 0 3 6 6 7 8 8 9 10 12 13 13 12 10 9 8 8 7 8 8 7 5 6 5 3 2 1 2 2 2 4 3 2 1 1 1 1 1 1 1 1 2 1 1 1 1 1
1 1 2 2 6 6 6 7 8 8 11 12 12 11 10 9 9 8 8 7 8 7 7 6 6 5 3 2 0 1 2 2 3 4 4 2 2 1 1 1 1 1 1 1 2 1 1 1 1
4 3 3 4 5 6 5 5 7 8 10 10 11 10 10 9 8 7 7 7 8 7 6 6 7 6 3 2 1 1 1 3 3 4 4 2 1 1 1 1 1 0 1 1 1 1 1 2 2
7 6 6 6 6 7 5 5 8 9 9 9 10 10 10 9 8 8 8 7 7 7 6 5 5 6 5 2 1 1 1 2 2 3 3 3 2 1 1 1 1 1 1 1 1 1 1 1 1
7 7 7 6 5 4 5 6 8 9 9 8 8 9 10 10 9 8 8 8 7 7 6 5 4 5 5 3 2 1 1 1 2 2 2 2 2 1 1 1 1 1 1 1 1 2 1 0 1
6 7 6 5 5 5 5 6 8 8 9 10 9 9 9 10 10 9 9 9 7 8 7 6 5 4 4 3 2 1 1 1 2 2 2 2 1 1 1 1 0 1 2 2 2 2 1 1 1
10 8 6 5 4 5 6 6 8 8 8 9 9 10 10 10 10 10 9 9 9 8 7 6 5 4 3 2 2 2 2 2 2 2 2 2 1 1 1 2 1 1 2 1 1 1 0 1 1
10 9 7 4 5 5 5 5 7 7 8 7 9 9 11 11 11 10 9 9 9 8 7 6 5 5 4 3 2 2 2 2 2 2 3 2 2 0 1 1 1 1 1 1 1 1 1 1 0
9 9 7 6 7 7 6 5 6 7 8 8 8 9 10 11 12 11 10 9 9 9 9 7 6 5 5 4 3 2 2 2 2 2 2 2 1 2 1 2 1 2 1 1 0 1 1 1 1
7 8 9 9 8 6 7 5 7 9 9 9 9 8 8 9 11 11 10 9 9 9 9 8 7 6 5 4 3 4 3 2 2 2 2 2 1 1 1 1 1 2 2 2 1 1 2 1 1
8 8 9 9 9 9 7 7 7 9 10 10 9 8 8 8 9 10 10 9 9 9 9 8 7 6 5 4 4 3 2 2 2 2 3 3 2 2 1 1 1 1 1 1 1 2 2 2 2
9 9 8 8 8 10 10 8 5 5 7 9 10 9 8 9 9 9 9 8 7 8 8 8 7 6 5 5 4 4 3 2 2 2 2 2 2 2 2 1 1 0 0 1 1 1 1 1 2
10 8 5 5 7 9 9 7 4 5 4 6 8 9 8 8 8 9 9 8 7 7 8 8 8 7 6 5 4 4 4 3 2 2 2 2 2 2 2 2 1 0 0 0 1 0 1 1 2
11 11 8 8 8 7 6 4 3 6 5 6 8 10 10 8 8 8 9 8 7 7 7 7 8 7 6 5 4 3 3 3 2 2 2 2 2 2 3 2 2 1 1 0 0 0 0 1 1
12 11 11 10 10 8 5 3 3 4 6 7 8 10 9 8 8 8 8 8 7 7 7 7 7 7 7 6 5 4 3 2 2 2 2 2 2 2 3 3 2 2 1 0 0 0 1 1 1
12 11 9 8 7 8 6 5 4 7 6 6 5 7 8 8 8 7 7 7 7 6 7 7 7 7 7 6 5 5 4 3 3 2 2 2 2 2 2 2 2 2 1 1 0 0 0 0 1
12 12 10 8 8 8 6 3 3 4 3 3 5 6 7 6 6 6 6 6 7 7 6 6 6 6 6 6 5 4 4 4 4 3 3 3 3 2 2 2 2 2 1 1 1 0 0 0 1
11 12 12 9 8 9 7 4 2 4 4 3 3 5 6 6 5 5 6 6 5 6 6 5 6 6 5 5 5 5 4 4 4 4 3 3 3 2 2 2 2 2 2 1 1 1 0 0 0
Wind_Direction
205 219 224 243 245 219 58 62 73 72 68 62 55 62 63 52 63 86 98 99 107 108 111 104 94 89 86 84 84 87 92 94 96 97 102 105 107 108 109 114 118 121 122 123 123 125 126 126 127
229 227 231 239 257 67 71 69 69 70 79 82 70 67 70 65 75 94 100 108 112 114 115 104 100 93 89 86 85 86 90 93 93 95 100 106 106 107 111 116 119 123 123 123 124 127 131 131 131
245 249 254 244 53 67 69 69 77 82 80 82 78 66 64 77 84 98 113 117 109 109 109 106 107 99 93 90 87 88 91 94 94 93 96 103 102 104 110 116 118 121 123 124 125 127 130 132 134
243 238 234 237 65 70 76 82 83 88 83 79 82 75 69 75 94 107 117 113 109 111 110 113 113 107 100 95 93 92 93 95 96 95 94 102 107 108 110 112 116 119 123 125 128 132 132 135 141
241 261 245 87 76 76 78 82 91 86 83 83 87 89 83 83 99 112 116 110 110 111 112 119 120 115 109 104 99 99 99 98 99 100 102 108 114 117 115 118 123 122 124 126 129 134 137 141 143
252 257 291 83 80 77 80 81 85 85 89 91 97 98 94 108 111 118 114 111 111 113 116 123 126 123 118 113 108 104 102 104 106 106 107 109 114 118 125 131 136 138 141 140 141 146 152 152 157
256 289 339 79 81 80 82 84 79 84 89 94 101 100 108 114 118 119 117 112 110 113 120 129 136 134 129 124 119 115 110 110 117 118 116 119 124 128 135 141 147 157 161 160 160 164 169 174 183
259 307 347 79 93 90 85 82 82 88 85 91 98 105 119 125 130 123 118 109 108 112 116 126 135 137 142 141 139 135 130 128 132 134 135 140 147 153 154 156 162 170 173 173 175 186 190 195 198
238 291 353 74 96 92 88 94 95 90 92 85 82 108 124 134 134 131 123 116 113 109 111 124 129 140 147 148 144 152 150 154 158 163 165 180 185 168 171 155 166 177 182 188 192 198 202 206 211
221 210 57 70 91 98 92 91 110 107 96 95 93 109 125 134 137 137 130 128 126 122 121 124 125 130 143 134 134 154 155 153 175 147 162 187 167 162 139 148 170 184 192 201 209 214 214 217 215
221 170 89 81 87 99 100 94 101 108 106 110 118 125 131 138 144 141 134 133 132 131 127 128 124 117 125 124 135 147 146 142 149 116 113 121 129 124 120 150 173 191 197 207 203 217 221 210 204
243 53 44 82 96 109 111 109 96 100 112 123 126 132 136 144 148 142 137 136 132 131 129 128 115 109 93 95 117 138 142 138 122 111 102 104 90 84 98 143 169 178 180 184 196 211 210 200 191
254 35 84 114 116 111 113 114 111 110 122 127 128 135 141 146 137 131 129 127 129 130 131 123 108 96 82 70 49 120 116 113 114 116 95 70 95 85 89 93 105 149 148 161 185 188 174 169 185
241 198 251 182 137 146 136 128 121 125 131 132 132 138 145 145 141 135 133 130 126 127 131 128 117 112 101 105 81 55 109 112 105 109 98 54 63 68 76 92 83 57 75 121 144 146 142 145 155
263 234 237 225 183 159 151 143 137 147 143 142 143 146 148 149 144 142 140 137 132 134 134 134 132 125 126 137 130 105 93 103 97 102 105 103 79 83 88 98 102 96 134 124 119 117 116 142 156
258 236 233 221 209 174 181 168 162 162 157 153 152 151 151 150 148 146 143 140 132 132 127 129 137 138 141 147 127 86 60 83 102 107 110 117 103 83 68 93 96 183 153 132 133 140 138 139 164
254 240 233 218 208 184 191 173 167 167 166 160 158 154 155 154 156 153 152 148 136 131 133 137 142 141 150 161 162 161 110 86 89 95 100 111 115 78 45 84 18 285 119 99 94 85 73 133 190
255 248 237 228 195 199 211 170 168 177 179 165 165 163 160 161 162 159 157 152 144 138 143 150 154 147 157 158 160 157 122 113 105 98 91 98 99 94 11 111 38 11 53 61 58 69 58 300 271
258 258 257 252 205 215 221 187 182 183 185 169 167 166 163 164 163 160 159 158 153 145 146 151 159 155 159 162 170 171 158 152 136 124 115 119 88 77 41 24 34 59 73 64 77 84 232 253 249
256 256 251 259 252 252 241 203 186 197 193 181 173 171 168 165 164 161 163 165 161 154 152 156 166 163 167 166 174 173 167 163 153 128 126 129 120 57 77 54 21 34 89 66 13 9 326 287 301
259 271 269 268 259 251 249 222 195 196 194 185 185 177 171 169 166 167 171 172 166 163 163 166 165 164 173 174 177 174 167 182 151 140 136 131 135 114 51 55 28 351 18 72 354 326 303 305 310
261 275 274 267 261 257 250 237 207 200 192 187 186 182 171 169 166 167 172 175 172 169 167 162 160 163 169 175 185 186 175 176 169 153 139 141 124 117 103 73 50 11 14 29 346 36 317 309 311
263 267 282 290 287 279 262 260 214 203 194 187 174 173 171 167 171 170 171 172 173 169 164 162 159 164 163 172 172 184 191 185 169 151 145 148 152 150 124 102 88 50 26 21 11 14 357 356 341
263 263 272 283 281 272 262 255 233 202 191 173 167 165 165 162 158 160 160 155 164 162 160 157 155 160 166 179 179 181 189 186 171 162 156 162 146 136 120 104 85 81 44 351 348 354 17 353 335
246 257 262 261 250 252 250 244 208 183 174 157 163 167 152 147 151 157 159 158 162 164 166 161 157 164 172 178 183 186 188 185 186 183 167 164 146 133 128 128 110 182 266 275 304 26 355 341 323
242 243 241 251 258 266 258 240 170 145 151 155 167 160 154 158 157 158 158 160 163 164 159 154 158 164 170 173 177 184 190 196 188 178 166 160 144 135 144 152 154 187 224 269 355 315 246 322 315
245 252 259 263 271 271 261 250 146 170 164 162 159 152 152 154 154 154 156 158 159 162 161 157 152 162 169 173 169 178 182 186 177 165 173 158 130 149 146 160 176 184 167 194 47 12 357 353 346
242 256 266 266 270 276 265 243 203 189 180 154 142 148 149 150 153 156 155 157 153 153 157 156 152 162 169 173 176 173 167 170 173 182 175 144 136 143 155 158 166 160 144 131 107 65 331 25 339
234 243 254 268 267 269 267 263 205 180 163 168 172 158 149 147 145 146 151 151 155 153 150 157 152 157 167 167 166 161 168 175 175 181 175 160 157 163 157 148 149 146 138 136 145 206 60 31 336
238 250 255 258 258 272 280 263 188 137 143 169 150 126 128 131 130 134 140 143 145 144 145 147 151 161 164 162 162 164 169 176 183 185 177 169 163 172 167 160 167 174 161 163 168 218 284 231 297